1547823600.15,48129,0.0,0.0,-17.17,-30.61,-30.51,0,*65
1547823601.42,48130,0.0,0.0,-17.17,-30.51,-30.33,0,*6A
1547823602.7,48131,0.0,0.0,-17.17,-30.55,-30.05,0,*6A
1547823603.96,48132,0.0,0.0,-17.21,-30.55,-30.11,0,*69
1547823605.25,48133,0.0,0.0,-17.17,-29.89,-29.35,0,*6A
1547823606.5,48134,0.0,0.0,-17.21,-29.23,-28.85,0,*62
1547823607.73,48135,0.0,0.0,-17.21,-29.07,-28.69,0,*67
1547823609.0,48136,0.0,0.0,-17.21,-28.59,-28.53,0,*67
1547823610.26,48137,0.0,0.0,-17.17,-28.47,-28.37,0,*6E
1547823611.52,48138,0.0,0.0,-17.17,-28.47,-28.69,0,*6A
1547823612.81,48139,0.0,0.0,-17.17,-28.79,-29.17,0,*6E
1547823614.05,48140,0.0,0.0,-17.13,-28.85,-29.17,0,*67
1547823615.3,48141,0.0,0.0,-17.17,-29.57,-29.83,0,*61
1547823616.56,48142,0.0,0.0,-17.21,-29.95,-30.05,0,*6F
1547823617.85,48143,0.0,0.0,-17.17,-30.17,-30.39,0,*66
1547823619.14,48144,0.0,0.0,-17.17,-30.55,-30.39,0,*67
1547823620.38,48145,0.0,0.0,-17.21,-30.27,-30.27,0,*69
1547823621.65,48146,0.0,0.0,-17.17,-29.83,-30.01,0,*6D
1547823622.91,48147,0.0,0.0,-17.21,-30.83,-30.95,0,*6C
1547823624.18,48148,0.0,0.0,-17.17,-30.95,-31.05,0,*69
1547823625.47,48149,0.0,0.0,-17.17,-30.77,-30.95,0,*6C
1547823626.74,48150,0.0,0.0,-17.21,-31.11,-31.17,0,*6B
1547823628.04,48151,0.0,0.0,-17.17,-31.11,-31.11,0,*69
1547823629.31,48152,0.0,0.0,-17.21,-31.29,-31.23,0,*65
1547823630.57,48153,0.0,0.0,-17.21,-31.17,-31.11,0,*68
1547823631.87,48154,0.0,0.0,-17.17,-31.23,-31.11,0,*6D
1547823633.14,48155,0.0,0.0,-17.17,-31.29,-31.23,0,*67
1547823634.44,48156,0.0,0.0,-17.17,-31.23,-31.11,0,*6F
1547823635.68,48157,0.0,0.0,-17.21,-30.67,-31.01,0,*6B
1547823636.91,48158,0.0,0.0,-17.21,-31.29,-31.33,0,*6E
1547823638.16,48159,0.0,0.0,-17.17,-31.29,-31.29,0,*61
1547823639.43,48160,0.0,0.0,-17.21,-31.61,-31.45,0,*68
1547823640.7,48161,0.0,0.0,-17.17,-31.45,-31.39,0,*61
1547823642.0,48162,0.0,0.0,-17.17,-31.61,-31.23,0,*6F
1547823643.29,48163,0.0,0.0,-17.17,-31.39,-31.23,0,*63
1547823644.56,48164,0.0,0.0,-17.21,-31.51,-31.17,0,*68
1547823645.82,48165,0.0,0.0,-17.21,-31.45,-31.11,0,*6A
1547823647.06,48166,0.0,0.0,-17.21,-31.17,-31.01,0,*6F
1547823648.3,48167,0.0,0.0,-17.21,-31.17,-31.01,0,*6E
1547823649.57,48168,0.0,0.0,-17.21,-31.11,-30.83,0,*6C
1547823650.87,48169,0.0,0.0,-17.17,-30.89,-30.61,0,*64
1547823652.14,48170,0.0,0.0,-17.21,-30.77,-30.67,0,*6E
1547823653.44,48171,0.0,0.0,-17.17,-30.73,-30.61,0,*68
1547823654.71,48172,0.0,0.0,-17.21,-30.67,-30.77,0,*6C
1547823656.01,48173,0.0,0.0,-17.21,-30.77,-30.77,0,*6C
1547823657.31,48174,0.0,0.0,-17.17,-30.61,-30.73,0,*6D
1547823658.6,48175,0.0,0.0,-17.17,-30.51,-30.89,0,*6A
1547823659.89,48176,0.0,0.0,-17.17,-30.61,-30.95,0,*67
1547823661.15,48177,0.0,0.0,-17.21,-30.67,-30.95,0,*65
1547823662.44,48178,0.0,0.0,-17.17,-30.77,-30.95,0,*6E
1547823663.73,48179,0.0,0.0,-17.21,-29.89,-30.39,0,*65
1547823664.98,48180,0.0,0.0,-17.21,-30.67,-31.17,0,*66
1547823666.21,48181,0.0,0.0,-17.21,-31.01,-31.33,0,*60
1547823667.44,48182,0.0,0.0,-17.21,-31.01,-31.17,0,*65
1547823668.71,48183,0.0,0.0,-17.21,-30.23,-30.77,0,*62
1547823669.97,48184,0.0,0.0,-17.21,-31.01,-31.11,0,*65
1547823671.22,48185,0.0,0.0,-17.21,-29.95,-30.23,0,*60
1547823672.46,48186,0.0,0.0,-17.21,-30.83,-31.17,0,*6A
1547823673.72,48187,0.0,0.0,-17.21,-30.95,-31.01,0,*6B
1547823674.96,48188,0.0,0.0,-17.21,-31.29,-31.33,0,*63
1547823676.2,48189,0.0,0.0,-17.17,-31.05,-31.29,0,*62
1547823677.47,48190,0.0,0.0,-17.21,-31.11,-31.29,0,*6A
1547823678.73,48191,0.0,0.0,-17.21,-31.01,-31.51,0,*65
1547823679.96,48192,0.0,0.0,-17.21,-31.17,-31.67,0,*64
1547823681.2,48193,0.0,0.0,-17.21,-31.29,-31.79,0,*67
1547823682.49,48194,0.0,0.0,-17.17,-31.11,-31.57,0,*62
1547823683.75,48195,0.0,0.0,-17.21,-31.29,-31.61,0,*68
1547823684.99,48196,0.0,0.0,-17.21,-31.45,-31.79,0,*68
1547823686.26,48197,0.0,0.0,-17.21,-31.61,-32.01,0,*63
1547823687.52,48198,0.0,0.0,-17.21,-31.45,-31.85,0,*65
1547823688.79,48199,0.0,0.0,-17.21,-31.45,-31.85,0,*64
1547823690.02,48200,0.0,0.0,-17.21,-31.67,-31.79,0,*64
1547823691.26,48201,0.0,0.0,-17.23,-31.67,-31.85,0,*64
1547823692.49,48202,0.0,0.0,-17.21,-31.33,-31.67,0,*68
1547823693.73,48203,0.0,0.0,-17.21,-31.17,-31.79,0,*60
1547823694.96,48204,0.0,0.0,-17.21,-31.29,-31.79,0,*6A
1547823696.25,48205,0.0,0.0,-17.21,-31.51,-31.91,0,*62
1547823697.54,48206,0.0,0.0,-17.21,-31.61,-32.07,0,*6E
1547823698.81,48207,0.0,0.0,-17.21,-31.79,-32.07,0,*66
1547823700.08,48208,0.0,0.0,-17.21,-31.79,-32.07,0,*69
1547823701.34,48209,0.0,0.0,-17.17,-31.73,-32.13,0,*62
1547823702.63,48210,0.0,0.0,-17.25,-31.91,-32.29,0,*6E
1547823703.87,48211,0.0,0.0,-17.21,-32.01,-32.23,0,*6B
1547823705.16,48212,0.0,0.0,-17.21,-31.91,-32.19,0,*6B
1547823706.42,48213,0.0,0.0,-17.21,-32.19,-32.23,0,*60
1547823707.71,48214,0.0,0.0,-17.17,-32.19,-32.29,0,*68
1547823708.98,48215,0.0,0.0,-17.21,-32.07,-32.23,0,*69
1547823710.22,48216,0.0,0.0,-17.23,-31.91,-32.13,0,*67
1547823711.48,48217,0.0,0.0,-17.21,-31.91,-32.23,0,*67
1547823712.74,48218,0.0,0.0,-17.17,-32.35,-32.45,0,*60
1547823714.0,48219,0.0,0.0,-17.21,-32.19,-32.39,0,*61
1547823715.24,48220,0.0,0.0,-17.21,-32.23,-32.51,0,*6C
1547823716.51,48221,0.0,0.0,-17.21,-32.19,-32.23,0,*61
1547823717.74,48222,0.0,0.0,-17.21,-32.23,-32.39,0,*60
1547823718.98,48223,0.0,0.0,-17.21,-32.35,-32.39,0,*66
1547823720.21,48224,0.0,0.0,-17.21,-32.35,-32.39,0,*61
1547823721.42,48225,0.0,0.0,-17.23,-32.39,-32.57,0,*66
1547823722.69,48226,0.0,0.0,-17.23,-32.63,-32.75,0,*6A
1547823723.94,48227,0.0,0.0,-17.23,-32.57,-32.75,0,*6C
1547823725.22,48228,0.0,0.0,-17.25,-32.45,-32.63,0,*61
1547823726.46,48229,0.0,0.0,-17.23,-32.57,-32.63,0,*65
1547823727.7,48230,0.0,0.0,-17.23,-32.45,-32.57,0,*69
1547823728.94,48231,0.0,0.0,-17.23,-32.57,-32.75,0,*6B
1547823730.18,48232,0.0,0.0,-17.23,-32.57,-32.63,0,*6F
1547823731.42,48233,0.0,0.0,-17.23,-32.57,-32.63,0,*6E
1547823732.68,48234,0.0,0.0,-17.25,-32.45,-32.57,0,*6B
1547823733.93,48235,0.0,0.0,-17.25,-32.29,-32.57,0,*60
1547823735.17,48236,0.0,0.0,-17.23,-32.39,-32.45,0,*67
1547823736.43,48237,0.0,0.0,-17.25,-32.45,-32.57,0,*68
1547823737.64,48238,0.0,0.0,-17.23,-32.39,-32.57,0,*6A
1547823738.85,48239,0.0,0.0,-17.23,-32.57,-32.57,0,*63
1547823740.1,48240,0.0,0.0,-17.25,-32.45,-32.57,0,*68
1547823741.36,48241,0.0,0.0,-17.25,-32.63,-32.57,0,*6D
1547823742.65,48242,0.0,0.0,-17.25,-32.45,-32.63,0,*6D
1547823743.91,48243,0.0,0.0,-17.25,-32.63,-32.57,0,*6F
1547823745.18,48244,0.0,0.0,-17.25,-32.57,-32.75,0,*6F
1547823746.47,48245,0.0,0.0,-17.25,-32.63,-32.63,0,*6E
1547823747.73,48246,0.0,0.0,-17.25,-32.57,-32.63,0,*6A
1547823749.0,48247,0.0,0.0,-17.23,-32.63,-32.75,0,*6D
1547823750.24,48248,0.0,0.0,-17.23,-32.57,-32.45,0,*66
1547823751.51,48249,0.0,0.0,-17.25,-32.57,-32.45,0,*61
1547823752.77,48250,0.0,0.0,-17.25,-32.45,-32.39,0,*61
1547823754.04,48251,0.0,0.0,-17.25,-32.57,-32.45,0,*68
1547823755.33,48252,0.0,0.0,-17.25,-32.63,-32.63,0,*68
1547823756.62,48253,0.0,0.0,-17.25,-32.63,-32.45,0,*6D
1547823757.9,48254,0.0,0.0,-17.25,-32.63,-32.63,0,*6E
1547823759.19,48255,0.0,0.0,-17.25,-32.63,-32.45,0,*6B
1547823760.48,48256,0.0,0.0,-17.25,-32.63,-32.45,0,*68
1547823761.74,48257,0.0,0.0,-17.25,-32.75,-32.57,0,*6D
1547823763.0,48258,0.0,0.0,-17.25,-32.75,-32.57,0,*62
1547823764.24,48259,0.0,0.0,-17.27,-32.75,-32.57,0,*61
1547823765.51,48260,0.0,0.0,-17.25,-32.57,-32.45,0,*6A
1547823766.8,48261,0.0,0.0,-17.25,-32.97,-32.75,0,*64
1547823768.07,48262,0.0,0.0,-17.25,-32.91,-32.75,0,*61
1547823769.36,48263,0.0,0.0,-17.25,-32.97,-32.75,0,*66
1547823770.62,48264,0.0,0.0,-17.25,-32.97,-32.91,0,*6B
1547823771.88,48265,0.0,0.0,-17.25,-32.79,-32.57,0,*60
1547823773.15,48266,0.0,0.0,-17.25,-32.57,-32.29,0,*66
1547823774.41,48267,0.0,0.0,-17.25,-32.23,-31.95,0,*60
1547823775.7,48268,0.0,0.0,-17.25,-32.07,-31.91,0,*6D
1547823776.94,48269,0.0,0.0,-17.25,-31.33,-31.01,0,*61
1547823778.21,48270,0.0,0.0,-17.27,-31.57,-31.51,0,*6C
1547823779.44,48271,0.0,0.0,-17.27,-30.67,-30.83,0,*61
1547823780.68,48272,0.0,0.0,-17.27,-31.05,-31.51,0,*69
1547823781.95,48273,0.0,0.0,-17.27,-31.95,-32.29,0,*6D
1547823783.17,48274,0.0,0.0,-17.27,-31.17,-31.05,0,*6D
1547823784.38,48275,0.0,0.0,-17.27,-31.17,-31.05,0,*6C
1547823785.65,48276,0.0,0.0,-17.29,-31.05,-31.91,0,*6F
1547823786.86,48277,0.0,0.0,-17.27,-31.05,-31.05,0,*6D
1547823788.1,48278,0.0,0.0,-17.27,-31.67,-32.07,0,*67
1547823789.39,48279,0.0,0.0,-17.29,-31.23,-31.73,0,*68
1547823790.63,48280,0.0,0.0,-17.27,-32.39,-32.29,0,*64
1547823791.89,48281,0.0,0.0,-17.27,-32.29,-32.29,0,*64
1547823793.15,48282,0.0,0.0,-17.27,-32.29,-32.29,0,*67
1547823794.41,48283,0.0,0.0,-17.27,-32.29,-32.29,0,*66
1547823795.67,48284,0.0,0.0,-17.27,-32.29,-32.29,0,*61
1547823796.94,48285,0.0,0.0,-17.27,-32.45,-32.45,0,*60
1547823798.21,48286,0.0,0.0,-17.29,-32.69,-32.63,0,*67
1547823799.49,48287,0.0,0.0,-17.27,-32.75,-32.79,0,*6E
1547823800.76,48288,0.0,0.0,-17.29,-32.85,-32.69,0,*61
1547823802.03,48289,0.0,0.0,-17.29,-32.79,-32.69,0,*63
1547823803.28,48290,0.0,0.0,-17.27,-32.63,-32.39,0,*6B
1547823804.53,48291,0.0,0.0,-17.29,-32.69,-32.51,0,*60
1547823805.77,48292,0.0,0.0,-17.27,-32.57,-32.45,0,*65
1547823807.04,48293,0.0,0.0,-17.27,-32.45,-32.45,0,*67
1547823808.29,48294,0.0,0.0,-17.29,-32.51,-32.51,0,*6E
1547823809.5,48295,0.0,0.0,-17.27,-32.57,-32.57,0,*61
1547823810.75,48296,0.0,0.0,-17.27,-32.57,-32.45,0,*61
1547823812.0,48297,0.0,0.0,-17.29,-32.35,-32.29,0,*60
1547823813.26,48298,0.0,0.0,-17.27,-32.29,-32.29,0,*6C
1547823814.51,48299,0.0,0.0,-17.27,-32.45,-32.39,0,*66
1547823815.75,48300,0.0,0.0,-17.29,-32.13,-32.35,0,*66
1547823816.99,48301,0.0,0.0,-17.27,-32.29,-32.39,0,*6C
1547823818.25,48302,0.0,0.0,-17.27,-32.29,-32.29,0,*6E
1547823819.46,48303,0.0,0.0,-17.27,-32.57,-32.57,0,*6F
1547823820.68,48304,0.0,0.0,-17.27,-32.57,-32.57,0,*68
1547823821.97,48305,0.0,0.0,-17.29,-32.63,-32.63,0,*67
1547823823.21,48306,0.0,0.0,-17.27,-32.57,-32.45,0,*69
1547823824.48,48307,0.0,0.0,-17.29,-32.45,-32.51,0,*60
1547823825.77,48308,0.0,0.0,-17.29,-32.45,-32.45,0,*6A
1547823827.01,48309,0.0,0.0,-17.25,-32.39,-32.39,0,*67
1547823828.23,48310,0.0,0.0,-17.27,-32.39,-32.39,0,*6D
1547823829.5,48311,0.0,0.0,-17.27,-32.45,-32.29,0,*66
1547823830.74,48312,0.0,0.0,-17.27,-32.57,-32.45,0,*6C
1547823831.97,48313,0.0,0.0,-17.27,-32.57,-32.39,0,*66
1547823833.21,48314,0.0,0.0,-17.27,-32.07,-32.13,0,*6C
1547823834.46,48315,0.0,0.0,-17.27,-31.33,-31.23,0,*69
1547823835.73,48316,0.0,0.0,-17.27,-31.23,-31.73,0,*6E
1547823836.95,48317,0.0,0.0,-17.27,-29.57,-29.57,0,*6A
1547823838.2,48318,0.0,0.0,-17.27,-29.29,-29.83,0,*65
1547823839.47,48319,0.0,0.0,-17.27,-31.73,-31.95,0,*6C
1547823840.72,48320,0.0,0.0,-17.27,-31.95,-32.23,0,*60
1547823841.96,48321,0.0,0.0,-17.27,-31.85,-32.23,0,*60
1547823843.2,48322,0.0,0.0,-17.29,-32.13,-32.35,0,*66
1547823844.42,48323,0.0,0.0,-17.27,-32.13,-32.39,0,*65
1547823845.66,48324,0.0,0.0,-17.25,-32.13,-32.23,0,*6B
1547823846.9,48325,0.0,0.0,-17.25,-32.23,-32.39,0,*62
1547823848.13,48326,0.0,0.0,-17.25,-32.23,-32.39,0,*61
1547823849.37,48327,0.0,0.0,-17.27,-32.13,-32.29,0,*60
1547823850.61,48328,0.0,0.0,-17.27,-32.29,-32.39,0,*67
1547823851.85,48329,0.0,0.0,-17.27,-32.45,-32.57,0,*64
1547823853.09,48330,0.0,0.0,-17.27,-32.63,-32.57,0,*68
1547823854.33,48331,0.0,0.0,-17.27,-32.91,-32.79,0,*68
1547823855.57,48332,0.0,0.0,-17.27,-32.91,-32.75,0,*67
1547823856.84,48333,0.0,0.0,-17.27,-32.79,-32.63,0,*67
1547823858.09,48334,0.0,0.0,-17.27,-32.79,-32.57,0,*67
1547823859.38,48335,0.0,0.0,-17.25,-32.97,-32.79,0,*68
1547823860.64,48336,0.0,0.0,-17.25,-32.91,-32.75,0,*61
1547823861.91,48337,0.0,0.0,-17.25,-32.91,-32.75,0,*60
1547823863.17,48338,0.0,0.0,-17.25,-32.91,-32.63,0,*68
1547823864.4,48339,0.0,0.0,-17.25,-32.57,-32.57,0,*64
1547823865.67,48340,0.0,0.0,-17.25,-32.45,-32.39,0,*61
1547823866.91,48341,0.0,0.0,-17.25,-32.57,-32.39,0,*63
1547823868.17,48342,0.0,0.0,-17.25,-32.57,-32.45,0,*6B
1547823869.46,48343,0.0,0.0,-17.25,-32.63,-32.45,0,*6D
1547823870.75,48344,0.0,0.0,-17.25,-32.63,-32.45,0,*6A
1547823871.97,48345,0.0,0.0,-17.27,-32.23,-32.23,0,*6D
1547823873.22,48346,0.0,0.0,-17.25,-32.23,-32.29,0,*66
1547823874.46,48347,0.0,0.0,-17.27,-32.13,-32.29,0,*66
1547823875.71,48348,0.0,0.0,-17.27,-32.39,-32.45,0,*6B
1547823876.93,48349,0.0,0.0,-17.27,-32.57,-32.39,0,*69
1547823878.16,48350,0.0,0.0,-17.27,-32.45,-32.57,0,*6A
1547823879.43,48351,0.0,0.0,-17.29,-32.97,-32.69,0,*67
1547823880.67,48352,0.0,0.0,-17.27,-32.91,-32.79,0,*6D
1547823881.89,48353,0.0,0.0,-17.27,-32.23,-32.39,0,*61
1547823883.13,48354,0.0,0.0,-17.27,-32.75,-32.57,0,*6D
1547823884.37,48355,0.0,0.0,-17.27,-32.29,-32.39,0,*6D
1547823885.61,48356,0.0,0.0,-17.27,-32.29,-32.39,0,*6E
1547823886.9,48357,0.0,0.0,-17.29,-32.63,-32.63,0,*60
1547823888.18,48358,0.0,0.0,-17.27,-31.73,-31.95,0,*69
1547823889.48,48359,0.0,0.0,-17.29,-32.79,-32.79,0,*6E
1547823890.75,48360,0.0,0.0,-17.27,-32.75,-32.79,0,*66
1547823892.04,48361,0.0,0.0,-17.29,-32.97,-32.85,0,*66
1547823893.31,48362,0.0,0.0,-17.29,-32.97,-32.69,0,*67
1547823894.58,48363,0.0,0.0,-17.27,-32.97,-32.75,0,*65
1547823895.87,48364,0.0,0.0,-17.29,-33.09,-33.09,0,*60
1547823897.11,48365,0.0,0.0,-17.27,-33.03,-32.97,0,*63
1547823898.35,48366,0.0,0.0,-17.29,-33.03,-33.03,0,*62
1547823899.6,48367,0.0,0.0,-17.27,-33.03,-32.85,0,*62
1547823900.89,48368,0.0,0.0,-17.29,-32.85,-32.79,0,*6F
1547823902.16,48369,0.0,0.0,-17.29,-32.97,-32.69,0,*6C
1547823903.43,48370,0.0,0.0,-17.27,-32.97,-32.63,0,*60
1547823904.69,48371,0.0,0.0,-17.29,-32.97,-32.69,0,*65
1547823905.94,48372,0.0,0.0,-17.29,-33.03,-32.69,0,*6A
1547823907.18,48373,0.0,0.0,-17.29,-33.03,-32.69,0,*6B
1547823908.45,48374,0.0,0.0,-17.29,-33.03,-32.79,0,*6D
1547823909.7,48375,0.0,0.0,-17.29,-33.03,-32.69,0,*6D
1547823910.97,48376,0.0,0.0,-17.27,-32.79,-32.63,0,*66
1547823912.24,48377,0.0,0.0,-17.29,-32.69,-32.45,0,*6C
1547823913.48,48378,0.0,0.0,-17.27,-32.63,-32.57,0,*64
1547823914.77,48379,0.0,0.0,-17.29,-32.85,-32.79,0,*6F
1547823916.07,48380,0.0,0.0,-17.29,-32.85,-32.79,0,*69
1547823917.34,48381,0.0,0.0,-17.29,-32.79,-32.69,0,*6A
1547823918.64,48382,0.0,0.0,-17.29,-32.79,-32.63,0,*63
1547823919.93,48383,0.0,0.0,-17.29,-32.79,-32.63,0,*62
1547823921.22,48384,0.0,0.0,-17.29,-32.97,-32.63,0,*65
1547823922.49,48385,0.0,0.0,-17.29,-32.97,-32.51,0,*65
1547823923.75,48386,0.0,0.0,-17.29,-32.97,-32.35,0,*64
1547823924.99,48387,0.0,0.0,-17.29,-32.69,-32.01,0,*63
1547823926.23,48388,0.0,0.0,-17.29,-32.13,-31.79,0,*6D
1547823927.5,48389,0.0,0.0,-17.27,-31.95,-31.85,0,*6C
1547823928.77,48390,0.0,0.0,-17.27,-32.45,-32.29,0,*6F
1547823930.02,48391,0.0,0.0,-17.29,-32.69,-32.51,0,*61
1547823931.31,48392,0.0,0.0,-17.29,-32.63,-32.45,0,*6D
1547823932.57,48393,0.0,0.0,-17.29,-32.35,-32.45,0,*6F
1547823933.86,48394,0.0,0.0,-17.29,-32.45,-32.63,0,*6B
1547823935.15,48395,0.0,0.0,-17.29,-33.09,-32.97,0,*68
1547823936.42,48396,0.0,0.0,-17.29,-33.03,-32.85,0,*62
1547823937.69,48397,0.0,0.0,-17.27,-32.97,-32.75,0,*6E
1547823938.98,48398,0.0,0.0,-17.29,-32.97,-32.85,0,*60
1547823940.25,48399,0.0,0.0,-17.29,-32.97,-32.69,0,*63
1547823941.52,48400,0.0,0.0,-17.29,-32.69,-32.45,0,*6B
1547823942.79,48401,0.0,0.0,-17.29,-32.97,-32.69,0,*65
1547823944.03,48402,0.0,0.0,-17.31,-32.85,-32.51,0,*67
1547823945.3,48403,0.0,0.0,-17.29,-32.97,-32.51,0,*6C
1547823946.6,48404,0.0,0.0,-17.29,-32.63,-32.19,0,*6C
1547823947.86,48405,0.0,0.0,-17.31,-32.45,-32.19,0,*60
1547823949.12,48406,0.0,0.0,-17.29,-32.35,-32.29,0,*6E
1547823950.35,48407,0.0,0.0,-17.31,-32.35,-32.29,0,*66
1547823951.62,48408,0.0,0.0,-17.31,-32.45,-31.95,0,*6A
1547823952.86,48409,0.0,0.0,-17.31,-32.13,-31.23,0,*65
1547823954.1,48410,0.0,0.0,-17.31,-31.23,-31.05,0,*69
1547823955.35,48411,0.0,0.0,-17.31,-31.23,-31.05,0,*68
1547823956.62,48412,0.0,0.0,-17.31,-31.11,-31.11,0,*6F
1547823957.86,48413,0.0,0.0,-17.31,-30.77,-31.05,0,*6A
1547823959.13,48414,0.0,0.0,-17.31,-31.11,-31.39,0,*63
1547823960.38,48415,0.0,0.0,-17.31,-31.73,-31.45,0,*6D
1547823961.65,48416,0.0,0.0,-17.31,-31.39,-31.23,0,*60
1547823962.89,48417,0.0,0.0,-17.31,-31.45,-31.39,0,*61
1547823964.14,48418,0.0,0.0,-17.31,-31.57,-31.45,0,*66
1547823965.4,48419,0.0,0.0,-17.31,-31.91,-31.57,0,*6E
1547823966.64,48420,0.0,0.0,-17.31,-32.13,-31.57,0,*6D
1547823967.88,48421,0.0,0.0,-17.31,-32.13,-31.39,0,*64
1547823969.17,48422,0.0,0.0,-17.33,-31.51,-30.77,0,*6B
1547823970.41,48423,0.0,0.0,-17.31,-30.73,-30.23,0,*68
1547823971.64,48424,0.0,0.0,-17.33,-30.45,-30.23,0,*68
1547823972.91,48425,0.0,0.0,-17.33,-30.61,-30.45,0,*6F
1547823974.14,48426,0.0,0.0,-17.33,-30.11,-30.23,0,*6B
1547823975.36,48427,0.0,0.0,-17.31,-30.33,-30.67,0,*68
1547823976.63,48428,0.0,0.0,-17.31,-30.89,-30.95,0,*6B
1547823977.86,48429,0.0,0.0,-17.33,-31.01,-31.17,0,*62
1547823979.11,48430,0.0,0.0,-17.31,-31.23,-31.29,0,*65
1547823980.35,48431,0.0,0.0,-17.31,-31.39,-31.45,0,*65
1547823981.57,48432,0.0,0.0,-17.31,-31.05,-31.29,0,*63
1547823982.81,48433,0.0,0.0,-17.31,-30.95,-31.29,0,*6A
1547823984.05,48434,0.0,0.0,-17.33,-31.29,-31.79,0,*6C
1547823985.29,48435,0.0,0.0,-17.31,-31.29,-31.91,0,*69
1547823986.53,48436,0.0,0.0,-17.33,-31.79,-32.23,0,*67
1547823987.74,48437,0.0,0.0,-17.31,-32.13,-32.35,0,*6C
1547823989.01,48438,0.0,0.0,-17.33,-32.19,-32.39,0,*67
1547823990.25,48439,0.0,0.0,-17.33,-32.23,-32.51,0,*61
1547823991.49,48440,0.0,0.0,-17.33,-32.23,-32.51,0,*6F
1547823992.73,48441,0.0,0.0,-17.31,-32.19,-32.35,0,*67
1547823993.96,48442,0.0,0.0,-17.33,-32.51,-32.35,0,*6A
1547823995.2,48443,0.0,0.0,-17.31,-32.45,-32.35,0,*6C
1547823996.43,48444,0.0,0.0,-17.31,-32.69,-32.51,0,*67
1547823997.65,48445,0.0,0.0,-17.31,-32.51,-32.39,0,*63
1547823998.88,48446,0.0,0.0,-17.31,-32.29,-32.35,0,*63
1547824000.14,48447,0.0,0.0,-17.33,-32.19,-32.23,0,*64
1547824001.36,48448,0.0,0.0,-17.31,-32.01,-32.01,0,*60
1547824002.63,48449,0.0,0.0,-17.33,-31.95,-31.79,0,*61
1547824003.87,48450,0.0,0.0,-17.31,-31.61,-31.67,0,*6F
1547824005.16,48451,0.0,0.0,-17.33,-31.95,-31.95,0,*6A
1547824006.43,48452,0.0,0.0,-17.31,-31.91,-31.91,0,*6B
1547824007.72,48453,0.0,0.0,-17.33,-31.85,-31.95,0,*69
1547824009.01,48454,0.0,0.0,-17.33,-32.07,-31.85,0,*66
1547824010.28,48455,0.0,0.0,-17.31,-31.91,-31.95,0,*68
1547824011.53,48456,0.0,0.0,-17.31,-32.01,-31.91,0,*65
1547824012.76,48457,0.0,0.0,-17.31,-31.91,-31.79,0,*68
1547824014.01,48458,0.0,0.0,-17.31,-32.01,-31.91,0,*6B
1547824015.28,48459,0.0,0.0,-17.33,-32.01,-31.95,0,*6C
1547824016.55,48460,0.0,0.0,-17.33,-31.95,-31.79,0,*6A
1547824017.78,48461,0.0,0.0,-17.31,-31.79,-31.57,0,*67
1547824019.08,48462,0.0,0.0,-17.33,-31.61,-31.61,0,*6A
1547824020.32,48463,0.0,0.0,-17.31,-31.45,-31.61,0,*6F
1547824021.58,48464,0.0,0.0,-17.31,-31.57,-31.57,0,*6E
1547824022.85,48465,0.0,0.0,-17.33,-31.79,-31.95,0,*6F
1547824024.09,48466,0.0,0.0,-17.31,-31.79,-31.73,0,*66
1547824025.35,48467,0.0,0.0,-17.33,-31.95,-32.01,0,*61
1547824026.65,48468,0.0,0.0,-17.33,-31.95,-32.07,0,*68
1547824027.89,48469,0.0,0.0,-17.31,-31.95,-32.01,0,*6D
1547824029.13,48470,0.0,0.0,-17.31,-31.95,-32.01,0,*65
1547824030.43,48471,0.0,0.0,-17.33,-32.07,-32.07,0,*68
1547824031.69,48472,0.0,0.0,-17.33,-32.19,-32.35,0,*65
1547824032.96,48473,0.0,0.0,-17.31,-31.95,-31.91,0,*6C
1547824034.23,48474,0.0,0.0,-17.33,-32.07,-31.79,0,*67
1547824035.49,48475,0.0,0.0,-17.33,-31.61,-31.67,0,*6A
1547824036.71,48476,0.0,0.0,-17.31,-31.79,-31.79,0,*6D
1547824037.97,48477,0.0,0.0,-17.31,-31.61,-31.61,0,*6C
1547824039.22,48478,0.0,0.0,-17.31,-31.39,-31.45,0,*68
1547824040.48,48479,0.0,0.0,-17.33,-31.51,-31.29,0,*6F
1547824041.72,48480,0.0,0.0,-17.31,-31.39,-31.79,0,*60
1547824042.99,48481,0.0,0.0,-17.31,-31.57,-31.91,0,*6F
1547824044.22,48482,0.0,0.0,-17.31,-32.29,-32.35,0,*6B
1547824045.46,48483,0.0,0.0,-17.31,-32.29,-32.51,0,*68
1547824046.68,48484,0.0,0.0,-17.31,-32.57,-32.69,0,*6D
1547824047.93,48485,0.0,0.0,-17.33,-32.69,-32.39,0,*66
1547824049.16,48486,0.0,0.0,-17.33,-32.23,-32.35,0,*67
1547824050.4,48487,0.0,0.0,-17.33,-32.39,-32.23,0,*6A
1547824051.63,48488,0.0,0.0,-17.33,-32.35,-32.01,0,*69
1547824052.87,48489,0.0,0.0,-17.33,-32.01,-31.67,0,*6C
1547824054.13,48490,0.0,0.0,-17.31,-31.57,-31.57,0,*65
1547824055.43,48491,0.0,0.0,-17.33,-32.07,-32.19,0,*69
1547824056.72,48492,0.0,0.0,-17.33,-31.95,-31.95,0,*65
1547824057.99,48493,0.0,0.0,-17.33,-31.95,-32.23,0,*6A
1547824059.25,48494,0.0,0.0,-17.33,-32.07,-32.01,0,*65
1547824060.52,48495,0.0,0.0,-17.33,-31.79,-32.07,0,*68
1547824061.76,48496,0.0,0.0,-17.33,-32.51,-32.39,0,*6F
1547824063.03,48497,0.0,0.0,-17.35,-32.19,-32.19,0,*66
1547824064.27,48498,0.0,0.0,-17.35,-32.19,-32.01,0,*60
1547824065.54,48499,0.0,0.0,-17.33,-31.85,-31.67,0,*62
1547824066.8,48500,0.0,0.0,-17.33,-31.61,-31.67,0,*69
1547824068.06,48501,0.0,0.0,-17.33,-31.95,-32.01,0,*60
1547824069.33,48502,0.0,0.0,-17.33,-32.23,-32.19,0,*64
1547824070.54,48503,0.0,0.0,-17.35,-32.35,-32.39,0,*66
1547824071.83,48504,0.0,0.0,-17.37,-32.79,-32.45,0,*60
1547824073.07,48505,0.0,0.0,-17.35,-32.07,-31.79,0,*66
1547824074.31,48506,0.0,0.0,-17.35,-31.67,-31.51,0,*6A
1547824075.52,48507,0.0,0.0,-17.35,-31.33,-31.01,0,*6F
1547824076.75,48508,0.0,0.0,-17.35,-31.45,-31.29,0,*6B
1547824077.99,48509,0.0,0.0,-17.35,-31.85,-31.67,0,*6C
1547824079.25,48510,0.0,0.0,-17.33,-31.51,-31.33,0,*6A
1547824080.51,48511,0.0,0.0,-17.33,-31.01,-30.61,0,*68
1547824081.8,48512,0.0,0.0,-17.33,-30.73,-30.39,0,*62
1547824083.06,48513,0.0,0.0,-17.31,-30.39,-30.51,0,*61
1547824084.29,48514,0.0,0.0,-17.35,-30.45,-30.95,0,*61
1547824085.55,48515,0.0,0.0,-17.33,-31.17,-31.95,0,*61
1547824086.85,48516,0.0,0.0,-17.33,-30.77,-30.61,0,*6F
1547824088.09,48517,0.0,0.0,-17.33,-30.83,-29.95,0,*66
1547824089.35,48518,0.0,0.0,-17.33,-30.11,-30.55,0,*66
1547824090.62,48519,0.0,0.0,-17.33,-31.61,-32.01,0,*62
1547824091.88,48520,0.0,0.0,-17.33,-31.67,-32.07,0,*68
1547824093.15,48521,0.0,0.0,-17.33,-32.07,-32.23,0,*6A
1547824094.39,48522,0.0,0.0,-17.33,-32.39,-32.69,0,*6A
1547824095.63,48523,0.0,0.0,-17.33,-32.51,-32.69,0,*65
1547824096.88,48524,0.0,0.0,-17.35,-32.75,-32.91,0,*65
1547824098.15,48525,0.0,0.0,-17.35,-32.75,-32.85,0,*61
1547824099.42,48526,0.0,0.0,-17.35,-32.75,-32.75,0,*6D
1547824100.64,48527,0.0,0.0,-17.35,-32.69,-32.57,0,*61
1547824101.85,48528,0.0,0.0,-17.35,-32.23,-32.39,0,*68
1547824103.07,48529,0.0,0.0,-17.35,-32.35,-32.39,0,*6E
1547824104.31,48530,0.0,0.0,-17.33,-32.39,-32.51,0,*62
1547824105.53,48531,0.0,0.0,-17.35,-32.51,-32.51,0,*6B
1547824106.75,48532,0.0,0.0,-17.35,-32.69,-32.57,0,*65
1547824107.97,48533,0.0,0.0,-17.35,-32.69,-32.69,0,*69
1547824109.2,48534,0.0,0.0,-17.35,-32.69,-32.69,0,*6E
1547824110.44,48535,0.0,0.0,-17.35,-32.69,-32.85,0,*6D
1547824111.69,48536,0.0,0.0,-17.35,-32.51,-32.75,0,*6A
1547824112.94,48537,0.0,0.0,-17.35,-32.57,-32.75,0,*6D
1547824114.16,48538,0.0,0.0,-17.35,-32.51,-32.69,0,*69
1547824115.37,48539,0.0,0.0,-17.35,-32.39,-32.57,0,*6B
1547824116.58,48540,0.0,0.0,-17.35,-32.23,-32.51,0,*68
1547824117.83,48541,0.0,0.0,-17.35,-32.57,-32.75,0,*6C
1547824119.06,48542,0.0,0.0,-17.35,-32.69,-32.51,0,*64
1547824120.27,48543,0.0,0.0,-17.35,-32.23,-32.35,0,*69
1547824121.51,48544,0.0,0.0,-17.35,-32.07,-32.35,0,*68
1547824122.75,48545,0.0,0.0,-17.37,-32.13,-32.39,0,*62
1547824123.99,48546,0.0,0.0,-17.35,-32.19,-32.39,0,*69
1547824125.21,48547,0.0,0.0,-17.35,-32.35,-32.39,0,*66
1547824126.46,48548,0.0,0.0,-17.37,-32.29,-32.57,0,*6E
1547824127.67,48549,0.0,0.0,-17.35,-32.35,-32.39,0,*68
1547824128.88,48550,0.0,0.0,-17.35,-32.35,-32.35,0,*6C
1547824130.12,48551,0.0,0.0,-17.35,-32.19,-32.23,0,*64
1547824131.33,48552,0.0,0.0,-17.35,-32.35,-32.35,0,*6E
1547824132.57,48553,0.0,0.0,-17.35,-32.19,-32.35,0,*61
1547824133.81,48554,0.0,0.0,-17.35,-32.19,-32.35,0,*66
1547824135.02,48555,0.0,0.0,-17.35,-32.23,-32.23,0,*69
1547824136.22,48556,0.0,0.0,-17.35,-32.35,-32.23,0,*6D
1547824137.43,48557,0.0,0.0,-17.35,-32.35,-32.23,0,*6C
1547824138.69,48558,0.0,0.0,-17.37,-32.13,-32.29,0,*6F
1547824139.93,48559,0.0,0.0,-17.37,-32.13,-32.39,0,*6F
1547824141.14,48560,0.0,0.0,-17.35,-32.23,-32.23,0,*6F
1547824142.35,48561,0.0,0.0,-17.35,-32.35,-32.23,0,*69
1547824143.56,48562,0.0,0.0,-17.35,-32.39,-32.35,0,*61
1547824144.81,48563,0.0,0.0,-17.37,-32.57,-32.39,0,*66
1547824146.07,48564,0.0,0.0,-17.37,-32.45,-32.39,0,*62
1547824147.34,48565,0.0,0.0,-17.37,-32.39,-32.07,0,*65